Decatur, IL

1:24 AM CDT on April 24, 2017 (GMT -0500)
Decatur

Weather History for KDEC - August, 2013

Change the Weather History Date:

Friday, August 16, 2013

  Actual Average Record
Temperature  
Mean Temperature 69 °F 74 °F  
Max Temperature 79 °F 84 °F 93 °F (1997)
Min Temperature 58 °F 63 °F 46 °F (2004)
Degree Days  
Heating Degree Days 0 0  
Month to date heating degree days 6 0  
Since 1 June heating degree days 24 18  
Since 1 July heating degree days 10 1  
Cooling Degree Days 4 9  
Month to date cooling degree days 96 148  
Year to date cooling degree days 713 797  
Since 1 June cooling degree days 601 710  
Growing Degree Days 19 (Base 50)    
Moisture  
Dew Point 55 °F    
Average Humidity 63    
Maximum Humidity 87    
Minimum Humidity 39    
Precipitation  
Precipitation 0.00 in 0.12 in 1.24 in (2012)
Month to date precipitation 0.02 1.53  
Year to date precipitation 26.37 24.19  
Sea Level Pressure  
Sea Level Pressure 30.15 in    
Wind  
Wind Speed 5 mph (East)    
Max Wind Speed 16 mph    
Max Gust Speed 23 mph    
Visibility 10 miles    
Events      
T = Trace of Precipitation, MM = Missing Value Source: NWS Daily Summary

Daily Weather History Graph

Daily Weather History Graph

Search for Another Location

Airport or City:

Trip Planner

Search our weather history database for the weather conditions in past years. The results will help you decide how hot, cold, wet, or windy it might be!

Date:

Astronomy

Aug. 16, 2013 Rise Set
Actual Time 6:08 AM CDT 7:50 PM CDT
Civil Twilight 5:39 AM CDT 8:18 PM CDT
Nautical Twilight 5:04 AM CDT 8:53 PM CDT
Astronomical Twilight 4:27 AM CDT 9:30 PM CDT
Moon 4:08 PM CDT (8/16) 1:11 AM CDT (8/16)
Length of Visible Light 14h 39m
Length of Day
13h 41m
Waxing Gibbous, 75% of the Moon is Illuminated
Aug 16
Waxing Gibbous
Aug 20
Full
Aug 28
Last Quarter
Sep 5
New
Sep 12
First Quarter

Hourly Weather History & Observations

Time (CDT) Temp. Dew Point Humidity Pressure Visibility Wind Dir Wind Speed Gust Speed Precip Events Conditions
12:54 AM 60.1 °F 55.9 °F 86% 30.14 in 10.0 mi ENE 3.5 mph - N/A   Partly Cloudy
1:54 AM 60.1 °F 55.9 °F 86% 30.13 in 10.0 mi Calm Calm - N/A   Partly Cloudy
2:54 AM 60.1 °F 55.0 °F 83% 30.12 in 10.0 mi North 3.5 mph - N/A   Clear
3:54 AM 60.1 °F 55.0 °F 83% 30.13 in 10.0 mi Calm Calm - N/A   Partly Cloudy
4:54 AM 59.0 °F 55.0 °F 87% 30.13 in 10.0 mi NNE 4.6 mph - N/A   Overcast
5:54 AM 60.1 °F 55.0 °F 83% 30.14 in 10.0 mi NE 4.6 mph - N/A   Partly Cloudy
6:54 AM 60.1 °F 55.0 °F 83% 30.15 in 10.0 mi NE 3.5 mph - N/A   Clear
7:54 AM 62.1 °F 55.9 °F 80% 30.17 in 10.0 mi Calm Calm - N/A   Clear
8:54 AM 66.0 °F 55.9 °F 70% 30.17 in 10.0 mi NE 5.8 mph - N/A   Clear
9:54 AM 70.0 °F 55.0 °F 59% 30.17 in 10.0 mi East 5.8 mph - N/A   Clear
10:54 AM 73.0 °F 52.0 °F 48% 30.17 in 10.0 mi ENE 9.2 mph - N/A   Clear
11:54 AM 75.9 °F 54.0 °F 46% 30.17 in 10.0 mi East 9.2 mph 17.3 mph N/A   Clear
12:54 PM 77.0 °F 53.1 °F 43% 30.16 in 10.0 mi East 12.7 mph - N/A   Partly Cloudy
1:54 PM 78.1 °F 52.0 °F 40% 30.15 in 10.0 mi East 10.4 mph - N/A   Clear
2:54 PM 79.0 °F 52.0 °F 39% 30.14 in 10.0 mi East 8.1 mph - N/A   Partly Cloudy
3:54 PM 77.0 °F 53.1 °F 43% 30.14 in 10.0 mi East 8.1 mph - N/A   Scattered Clouds
4:54 PM 78.1 °F 53.1 °F 42% 30.14 in 10.0 mi East 6.9 mph - N/A   Partly Cloudy
5:54 PM 75.0 °F 55.0 °F 50% 30.14 in 10.0 mi SE 5.8 mph - N/A   Clear
6:54 PM 73.0 °F 57.0 °F 57% 30.14 in 10.0 mi ESE 3.5 mph - N/A   Clear
7:54 PM 69.1 °F 57.9 °F 68% 30.15 in 10.0 mi SSE 4.6 mph - N/A   Clear
8:54 PM 64.0 °F 57.9 °F 80% 30.17 in 10.0 mi Calm Calm - N/A   Clear
9:54 PM 62.1 °F 57.0 °F 84% 30.18 in 10.0 mi Calm Calm - N/A   Clear
10:54 PM 63.0 °F 55.0 °F 75% 30.17 in 10.0 mi ENE 3.5 mph - N/A   Clear
11:54 PM 59.0 °F 55.0 °F 87% 30.17 in 10.0 mi Calm Calm - N/A   Clear